Content
SEND FEEDBACK

Daily
Averages
Monthly
Summary
United States of America

CARSON CITY, NEVADA


Home > North America > United States > Nevada
Elevation: 4742 feet     Latitude: 39 09N     Longitude: 119 46W

WEATHER
 
SELECT A DAY
Number of Records: 102,082;   Date Range: 7/14/10 - 12/19/14
 
SHARE

PRINT THIS DATA

[ ← Previous Day ]
WEATHER ALMANAC - AUGUST 1, 2013
[ Next Day → ]
[ °C ]   °F
Weather ElementAverageHighLow
Temperature69.9 °F80.6 °F (1:15 pm)55.4 °F (11:35 pm)
Dewpoint23.6 °F37.4 °F (7:35 am)14 °F (10:55 am)
Humidity20.7 %42 % (6:55 am)8 % (1:55 pm)
Barometer30.12 in30.14 in (8:35 am)30.08 in (4:15 pm)
Wind Speed8.2 mph19.6 mph (4:55 pm)
Wind Gust29.9 mph (4:55 pm)
Weather ElementAverage
Visibility10 mi
Wind DirectionSSW (203.7 °)

Weather ElementTotal
Precipitation---
Cooling Degree Days3 (Base 65)
Growing Degree Days18 (Base 50)
Averaged from 71 records on August 1, 2013
WEATHER CONDITIONS BREAKOUT
WIND DIRECTION BREAKOUT
WEATHER BY HOUR - AUGUST 1, 2013
[ °C ]   °F
Local TimeTemperatureDewpointHumidityBarometerVisibilityWind DirectionWind SpeedGust SpeedPrecipitationEventsConditions
12:35 AM64.4 °F35.6 °F34 %30.13 in10.0 miNE (40°)3.5 mphClear
12:55 AM64.4 °F35.6 °F34 %30.13 in10.0 miSouth (190°)4.6 mphClear
1:15 AM66.2 °F35.6 °F32 %30.13 in10.0 miCalmClear
1:35 AM64.4 °F33.8 °F32 %30.12 in10.0 miSW (230°)3.5 mphClear
1:55 AM66.2 °F33.8 °F30 %30.12 in10.0 miWSW (240°)5.8 mphClear
2:15 AM66.2 °F32.0 °F28 %30.12 in10.0 miSW (220°)6.9 mphClear
2:35 AM66.2 °F32.0 °F28 %30.12 in10.0 miSSW (200°)8.1 mphClear
2:55 AM64.4 °F32.0 °F30 %30.12 in10.0 miSSW (200°)4.6 mphClear
3:15 AM60.8 °F32.0 °F34 %30.11 in10.0 miCalmClear
3:35 AM62.6 °F32.0 °F32 %30.12 in10.0 miSSW (210°)3.5 mphClear
3:55 AM59.0 °F32.0 °F36 %30.11 in10.0 miCalmClear
4:15 AM60.8 °F32.0 °F34 %30.12 in10.0 miNNW (340°)3.5 mphClear
4:35 AM59.0 °F32.0 °F36 %30.12 in10.0 miCalmClear
4:55 AM59.0 °F32.0 °F36 %30.12 in10.0 miCalmClear
5:15 AM57.2 °F32.0 °F38 %30.13 in10.0 miWest (270°)3.5 mphClear
5:35 AM59.0 °F33.8 °F39 %30.12 in10.0 miSW (220°)5.8 mphClear
5:55 AM60.8 °F35.6 °F39 %30.13 in10.0 miSW (220°)5.8 mphClear
6:15 AM60.8 °F35.6 °F39 %30.13 in10.0 miSW (230°)6.9 mphClear
6:35 AM60.8 °F35.6 °F39 %30.13 in10.0 miCalmClear
6:55 AM59.0 °F35.6 °F42 %30.13 in10.0 miCalmClear
7:15 AM62.6 °F35.6 °F37 %30.13 in10.0 miWNW (290°)3.5 mphClear
7:35 AM62.6 °F37.4 °F39 %30.13 in10.0 miCalmClear
7:55 AM64.4 °F35.6 °F34 %30.13 in10.0 miCalmClear
8:15 AM66.2 °F35.6 °F32 %30.13 in10.0 miSouth (170°)3.5 mphClear
8:35 AM68.0 °F33.8 °F28 %30.14 in10.0 miSouth (180°)3.5 mphClear
8:55 AM69.8 °F32.0 °F25 %30.13 in10.0 miSouth (180°)4.6 mphClear
9:15 AM71.6 °F26.6 °F19 %30.13 in10.0 miSSE (160°)3.5 mphClear
9:35 AM73.4 °F23.0 °F15 %30.12 in10.0 miSW (230°)10.4 mph16.1 mphClear
9:55 AM75.2 °F17.6 °F11 %30.12 in10.0 miWest (260°)12.7 mph17.3 mphClear
10:15 AM75.2 °F15.8 °F11 %30.12 in10.0 miWSW (250°)16.1 mph25.3 mphClear
10:35 AM75.2 °F15.8 °F11 %30.12 in10.0 miWSW (250°)13.8 mph23.0 mphClear
10:55 AM77.0 °F14.0 °F9 %30.12 in10.0 miWSW (250°)12.7 mph24.2 mphClear
11:15 AM77.0 °F14.0 °F9 %30.12 in10.0 miWest (270°)17.3 mph24.2 mphClear
11:35 AM77.0 °F14.0 °F9 %30.12 in10.0 miWSW (250°)11.5 mph23.0 mphClear
11:55 AM78.8 °F14.0 °F9 %30.12 in9.0 miWest (270°)12.7 mph25.3 mphClear
12:15 PM78.8 °F14.0 °F9 %30.12 in10.0 miWSW (250°)17.3 mph26.5 mphClear
12:35 PM78.8 °F14.0 °F9 %30.12 in10.0 miSW (230°)15.0 mph23.0 mphClear
12:55 PM78.8 °F14.0 °F9 %30.12 in10.0 miSW (220°)13.8 mph23.0 mphClear
1:15 PM80.6 °F15.8 °F9 %30.12 in10.0 miSW (230°)13.8 mph24.2 mphClear
1:35 PM80.6 °F15.8 °F9 %30.12 in10.0 miWSW (250°)12.7 mph19.6 mphClear
1:55 PM80.6 °F14.0 °F8 %30.12 in10.0 miWSW (240°)11.5 mph23.0 mphClear
2:15 PM80.6 °F17.6 °F10 %30.12 in10.0 miWest (280°)16.1 mph26.5 mphClear
2:35 PM80.6 °F17.6 °F10 %30.11 in10.0 miWSW (250°)13.8 mph25.3 mphClear
2:55 PM80.6 °F15.8 °F9 %30.11 in10.0 miWest (270°)15.0 mph24.2 mphClear
3:15 PM80.6 °F14.0 °F8 %30.11 in10.0 miWest (270°)16.1 mph27.6 mphClear
3:35 PM80.6 °F14.0 °F8 %30.10 in10.0 miWest (260°)13.8 mph25.3 mphClear
3:55 PM80.6 °F14.0 °F8 %30.10 in10.0 miWSW (250°)13.8 mph23.0 mphClear
4:15 PM78.8 °F14.0 °F9 %30.08 in10.0 miWest (260°)16.1 mph23.0 mphClear
4:35 PM80.6 °F14.0 °F8 %30.08 in10.0 miWNW (290°)18.4 mph26.5 mphClear
4:55 PM77.0 °F15.8 °F10 %30.09 in10.0 miWNW (290°)19.6 mph29.9 mphClear
5:15 PM77.0 °F17.6 °F11 %30.08 in10.0 miWest (270°)19.6 mph27.6 mphClear
5:35 PM77.0 °F15.8 °F10 %30.08 in10.0 miWest (270°)12.7 mph26.5 mphClear
5:55 PM77.0 °F17.6 °F11 %30.09 in10.0 miWest (260°)15.0 mph21.9 mphClear
6:15 PM77.0 °F15.8 °F10 %30.10 in10.0 miWSW (250°)6.9 mph17.3 mphClear
6:35 PM75.2 °F15.8 °F11 %30.09 in10.0 miWest (260°)13.8 mph18.4 mphClear
6:55 PM75.2 °F17.6 °F11 %30.10 in10.0 miWNW (290°)8.1 mph17.3 mphClear
7:15 PM73.4 °F19.4 °F13 %30.09 in10.0 miWSW (250°)8.1 mphClear
7:35 PM73.4 °F17.6 °F12 %30.10 in10.0 miWest (270°)8.1 mph16.1 mphClear
7:55 PM71.6 °F19.4 °F14 %30.10 in10.0 miSW (230°)3.5 mphClear
8:15 PM71.6 °F19.4 °F14 %30.11 in10.0 miWest (260°)10.4 mphClear
8:35 PM68.0 °F21.2 °F17 %30.11 in10.0 miSW (230°)4.6 mphClear
8:55 PM68.0 °F21.2 °F17 %30.12 in10.0 miSW (230°)5.8 mphClear
9:15 PM68.0 °F21.2 °F17 %30.11 in10.0 miNorth (350°)8.1 mphClear
9:35 PM66.2 °F19.4 °F17 %30.12 in10.0 miWNW (290°)9.2 mphClear
9:55 PM66.2 °F19.4 °F17 %30.12 in10.0 miWSW (240°)3.5 mphClear
10:15 PM64.4 °F23.0 °F21 %30.12 in10.0 miSSW (210°)4.6 mphClear
10:35 PM64.4 °F23.0 °F21 %30.12 in10.0 miWest (270°)3.5 mphClear
10:55 PM62.6 °F23.0 °F22 %30.12 in10.0 miSSW (200°)4.6 mphClear
11:15 PM59.0 °F23.0 °F25 %30.12 in10.0 miEast (100°)4.6 mphClear
11:35 PM55.4 °F24.8 °F31 %30.12 in10.0 miENE (70°)5.8 mphClear
11:55 PM59.0 °F23.0 °F25 %30.12 in10.0 miCalmClear
Hourly data recorded from KCXP, located miles away from Carson City, Nevada







STORIES FROM OUR PARTNERS